Salida, CO

11:24 AM MDT on July 20, 2017 (GMT -0600)
Salida

Weather History for KANK - January, 2013

Change the Weather History Date:

Sunday, January 20, 2013

  Actual Average (KGUC) Record (KGUC)
Temperature  
Mean Temperature 35 °F -  
Max Temperature 50 °F 23 °F 44 °F (2012)
Min Temperature 20 °F 0 °F -23 °F (2008)
Degree Days  
Heating Degree Days 30    
Moisture  
Dew Point -2 °F    
Average Humidity 24    
Maximum Humidity 51    
Minimum Humidity 10    
Precipitation  
Precipitation 0.00 in - - ()
Sea Level Pressure  
Sea Level Pressure 30.30 in    
Wind  
Wind Speed 10 mph (West)    
Max Wind Speed 22 mph    
Max Gust Speed 25 mph    
Visibility 10 miles    
Events      
Averages and records for this station are not official NWS values.
T = Trace of Precipitation, MM = Missing Value Source: NWS Daily Summary

Daily Weather History Graph

Daily Weather History Graph

Search for Another Location

Airport or City:

Trip Planner

Search our weather history database for the weather conditions in past years. The results will help you decide how hot, cold, wet, or windy it might be!

Date:

Astronomy

Jan. 20, 2013 Rise Set
Actual Time 7:18 AM MST 5:13 PM MST
Civil Twilight 6:49 AM MST 5:41 PM MST
Nautical Twilight 6:16 AM MST 6:14 PM MST
Astronomical Twilight 5:45 AM MST 6:45 PM MST
Moon 12:15 PM MST 1:53 AM MST
Length of Visible Light 10h 52m
Length of Day
9h 55m
Waxing Gibbous, 67% of the Moon is Illuminated
Jan 20
Waxing Gibbous
Jan 26
Full
Feb 3
Last Quarter
Feb 10
New
Feb 17
First Quarter

Hourly Weather History & Observations

Time (MST) Temp. Windchill Dew Point Humidity Pressure Visibility Wind Dir Wind Speed Gust Speed Precip Events Conditions
12:15 AM 28.9 °F 22.8 °F 0.3 °F 29% 30.35 in 10.0 mi NW 5.8 mph - N/A   Clear
12:35 AM 30.2 °F 21.3 °F 0.5 °F 28% 30.34 in 10.0 mi NNW 10.4 mph - N/A   Clear
12:55 AM 31.3 °F 21.1 °F -0.0 °F 26% 30.34 in 10.0 mi WNW 13.8 mph 19.6 mph N/A   Clear
1:15 AM 28.6 °F 16.4 °F 0.5 °F 30% 30.33 in 10.0 mi NNW 17.3 mph - N/A   Clear
1:55 AM 27.3 °F 17.1 °F -0.4 °F 30% 30.33 in 10.0 mi NW 11.5 mph 17.3 mph N/A   Clear
2:15 AM 26.6 °F 12.4 °F -0.0 °F 32% 30.32 in 10.0 mi NNW 21.9 mph - N/A   Clear
2:35 AM 27.7 °F 16.1 °F -1.1 °F 29% 30.32 in 10.0 mi NNW 15.0 mph 25.3 mph N/A   Clear
2:55 AM 27.3 °F 16.6 °F -1.1 °F 29% 30.32 in 10.0 mi NNW 12.7 mph - N/A   Clear
3:15 AM 27.1 °F 14.9 °F -1.8 °F 29% 30.31 in 10.0 mi NW 16.1 mph 19.6 mph N/A   Clear
3:35 AM 26.6 °F 14.3 °F -2.6 °F 28% 30.31 in 10.0 mi NNW 16.1 mph 21.9 mph N/A   Clear
3:55 AM 27.3 °F 14.4 °F -3.3 °F 27% 30.30 in 10.0 mi NNW 18.4 mph - N/A   Clear
4:15 AM 26.2 °F 13.4 °F -3.5 °F 28% 30.30 in 10.0 mi NNW 17.3 mph 20.7 mph N/A   Clear
4:35 AM 26.1 °F 15.6 °F -3.8 °F 27% 30.30 in 10.0 mi NNW 11.5 mph 18.4 mph N/A   Clear
4:55 AM 25.9 °F 13.8 °F -3.6 °F 28% 30.29 in 10.0 mi NNW 15.0 mph 23.0 mph N/A   Clear
5:15 AM 26.4 °F 14.0 °F -4.4 °F 26% 30.28 in 10.0 mi NNW 16.1 mph 23.0 mph N/A   Clear
5:35 AM 27.0 °F 13.9 °F -4.9 °F 25% 30.29 in 10.0 mi NNW 18.4 mph 21.9 mph N/A   Clear
5:55 AM 26.4 °F 14.5 °F -5.1 °F 25% 30.30 in 10.0 mi NNW 15.0 mph 21.9 mph N/A   Clear
6:15 AM 24.6 °F 14.4 °F -4.9 °F 28% 30.30 in 10.0 mi NNW 10.4 mph - N/A   Clear
6:35 AM 24.6 °F 13.8 °F -5.1 °F 27% 30.30 in 10.0 mi NW 11.5 mph - N/A   Clear
6:55 AM 25.7 °F 15.7 °F -5.1 °F 26% 30.30 in 10.0 mi NNW 10.4 mph - N/A   Clear
7:15 AM 25.3 °F 14.7 °F -4.9 °F 27% 30.32 in 10.0 mi NNW 11.5 mph - N/A   Clear
7:35 AM 26.2 °F 17.1 °F -3.8 °F 27% 30.32 in 10.0 mi WNW 9.2 mph - N/A   Clear
7:55 AM 27.0 °F 21.6 °F -4.0 °F 26% 30.33 in 10.0 mi NNW 4.6 mph - N/A   Clear
8:15 AM 23.2 °F 13.3 °F -3.5 °F 31% 30.33 in 10.0 mi North 9.2 mph - N/A   Clear
8:35 AM 24.8 °F - -2.7 °F 30% 30.34 in 10.0 mi Calm Calm - N/A   Clear
8:55 AM 27.3 °F - -2.0 °F 28% 30.35 in 10.0 mi Calm Calm - N/A   Clear
9:15 AM 30.2 °F 22.6 °F -2.9 °F 24% 30.35 in 10.0 mi North 8.1 mph - N/A   Clear
9:55 AM 36.7 °F - -3.3 °F 18% 30.37 in 10.0 mi Calm Calm - N/A   Clear
10:15 AM 37.8 °F 35.3 °F -2.4 °F 18% 30.37 in 10.0 mi NNW 3.5 mph - N/A   Clear
10:35 AM 41.2 °F 39.2 °F -4.4 °F 15% 30.37 in 10.0 mi NW 3.5 mph - N/A   Clear
11:15 AM 45.7 °F - -4.2 °F 12% 30.35 in 10.0 mi Calm Calm - N/A   Clear
11:35 AM 46.4 °F 45.2 °F -4.7 °F 12% 30.34 in 10.0 mi WSW 3.5 mph - N/A   Clear
11:55 AM 45.9 °F 43.6 °F -4.9 °F 12% 30.32 in 10.0 mi North 4.6 mph - N/A   Clear
12:15 PM 48.2 °F - -3.5 °F 12% 30.30 in 10.0 mi Calm Calm - N/A   Clear
12:35 PM 47.1 °F - -4.5 °F 12% 30.29 in 10.0 mi Calm Calm - N/A   Clear
12:55 PM 48.4 °F - -4.4 °F 11% 30.27 in 10.0 mi WNW 3.5 mph - N/A   Clear
1:15 PM 48.6 °F - -4.4 °F 11% 30.27 in 10.0 mi Calm Calm - N/A   Clear
1:35 PM 50.5 °F - -3.5 °F 11% 30.25 in 10.0 mi SW 3.5 mph - N/A   Clear
1:55 PM 50.0 °F - -3.6 °F 11% 30.25 in 10.0 mi SW 11.5 mph 16.1 mph N/A   Clear
2:15 PM 50.4 °F - -3.1 °F 11% 30.25 in 10.0 mi SSW 10.4 mph - N/A   Clear
2:35 PM 50.0 °F - -4.0 °F 11% 30.25 in 10.0 mi WSW 10.4 mph 17.3 mph N/A   Clear
2:55 PM 50.2 °F - -4.9 °F 10% 30.24 in 10.0 mi SW 11.5 mph 18.4 mph N/A   Clear
3:15 PM 50.0 °F - -4.0 °F 11% 30.24 in 10.0 mi SW 10.4 mph 16.1 mph N/A   Clear
3:35 PM 49.1 °F - -4.0 °F 11% 30.24 in 10.0 mi SW 10.4 mph 16.1 mph N/A   Clear
3:55 PM 48.0 °F - -4.2 °F 11% 30.24 in 10.0 mi SSW 10.4 mph 18.4 mph N/A   Clear
4:15 PM 46.2 °F 40.5 °F -4.4 °F 12% 30.24 in 10.0 mi SW 12.7 mph 17.3 mph N/A   Clear
4:35 PM 44.4 °F 37.9 °F -4.5 °F 13% 30.24 in 10.0 mi SW 13.8 mph 20.7 mph N/A   Clear
4:55 PM 43.0 °F 37.2 °F -4.4 °F 14% 30.25 in 10.0 mi SW 10.4 mph 18.4 mph N/A   Clear
5:15 PM 41.5 °F 35.9 °F -3.5 °F 15% 30.25 in 10.0 mi WSW 9.2 mph - N/A   Clear
5:35 PM 40.8 °F 34.5 °F -4.0 °F 15% 30.25 in 10.0 mi SW 10.4 mph 18.4 mph N/A   Clear
5:55 PM 39.9 °F 33.4 °F -3.5 °F 16% 30.27 in 10.0 mi SW 10.4 mph - N/A   Clear
6:15 PM 38.5 °F 32.7 °F -2.9 °F 17% 30.27 in 10.0 mi WSW 8.1 mph - N/A   Clear
6:35 PM 37.8 °F 32.5 °F -4.2 °F 17% 30.28 in 10.0 mi South 6.9 mph - N/A   Clear
6:55 PM 36.7 °F 32.9 °F 1.4 °F 23% 30.29 in 10.0 mi SSE 4.6 mph - N/A   Clear
7:15 PM 35.8 °F 30.9 °F 3.6 °F 26% 30.29 in 10.0 mi South 5.8 mph - N/A   Clear
7:35 PM 34.7 °F 28.8 °F 4.1 °F 28% 30.29 in 10.0 mi SE 6.9 mph - N/A   Clear
7:55 PM 33.8 °F 28.6 °F 4.6 °F 29% 30.30 in 10.0 mi SSE 5.8 mph - N/A   Clear
8:15 PM 33.3 °F 27.1 °F 4.5 °F 30% 30.31 in 10.0 mi South 6.9 mph - N/A   Clear
8:35 PM 32.2 °F 26.7 °F 4.1 °F 31% 30.32 in 10.0 mi South 5.8 mph - N/A   Clear
8:55 PM 31.8 °F 27.3 °F 4.1 °F 31% 30.32 in 10.0 mi South 4.6 mph - N/A   Clear
9:15 PM 27.3 °F 22.0 °F 1.8 °F 33% 30.33 in 10.0 mi SSW 4.6 mph - N/A   Clear
9:35 PM 26.6 °F 22.6 °F 1.2 °F 34% 30.34 in 10.0 mi SSW 3.5 mph - N/A   Clear
9:55 PM 25.7 °F 20.1 °F 1.6 °F 35% 30.34 in 10.0 mi SW 4.6 mph - N/A   Clear
10:15 PM 24.3 °F 18.4 °F 1.9 °F 38% 30.34 in 10.0 mi WSW 4.6 mph - N/A   Clear
10:35 PM 24.4 °F 20.1 °F 2.8 °F 39% 30.34 in 10.0 mi SW 3.5 mph - N/A   Clear
10:55 PM 23.7 °F 17.8 °F 3.4 °F 42% 30.33 in 10.0 mi SW 4.6 mph - N/A   Clear
11:15 PM 20.8 °F - 3.0 °F 46% 30.33 in 10.0 mi Calm Calm - N/A   Clear
11:35 PM 21.6 °F - 4.3 °F 47% 30.32 in 10.0 mi Calm Calm - N/A   Clear
11:55 PM 20.1 °F 15.2 °F 4.6 °F 51% 30.33 in 10.0 mi NNW 3.5 mph - N/A   Clear